STARLINK-35979

Last updated on Mon Dec 15 2025 00:02:11 GMT+0000 (Coordinated Universal Time)

1 66809U 25278U 25348.25003472 -.01351192 00000+0 -70850-2 0 9993 2 66809 42.9971 242.7208 0001834 281.8414 138.0756 15.82730160 3200
UTC large
Height (km)
Speed (km/s)
/
Latitude / Longitude
Inclination (degrees)
Orbital Period (minutes)
Azimuth
Elevation
Range (km)
Doppler Factor

Next 0 passes for location: London (51.5072 / 0.1276)

Sorry there are no passes over London.